Location: Champignolles
(47.0543°N, 4.5663°E)
Time: 20:04:56
(UTC+00:00)

ERS-2 - Pass Details

Date: 30 November 2020
Orbit: 492 x 498 km, 98.6° (Epoch: 27 January)

Event Time Altitude Azimuth Distance (km) Brightness Sun altitude
Exits shadow 16:56:44 12° 45° (NE) 1,561 4.1 -10.3°
Maximum altitude 16:59:20 24° 96° (E) 1,064 3.3 -10.7°
Drops below altitude 10° 17:02:22 10° 152° (SSE) 1,699 4.7 -11.2°
Sets 17:04:43 0° 167° (SSE) 2,577 5.8 -11.6°
